Upington, South Africa

2:26 PM SAST on October 18, 2017 (GMT +0200)
Upington

Weather History for FAUP - March, 2013

Change the Weather History Date:

Saturday, March 2, 2013

  Actual Average Record
Temperature  
Mean Temperature 78 °F -  
Max Temperature 97 °F 88 °F 102 °F (2003)
Min Temperature 59 °F 62 °F 59 °F (2006)
Cooling Degree Days 13    
Growing Degree Days 28 (Base 50)    
Moisture  
Dew Point 36 °F    
Average Humidity 20    
Maximum Humidity 34    
Minimum Humidity 6    
Precipitation  
Precipitation 0.00 in 0.05 in - ()
Sea Level Pressure  
Sea Level Pressure 30.04 in    
Wind  
Wind Speed 4 mph ()    
Max Wind Speed 10 mph    
Max Gust Speed -    
Averages and records for this station are not official NWS values.
T = Trace of Precipitation, MM = Missing Value Source: Averaged Metar Reports

Daily Weather History Graph

Daily Weather History Graph

Search for Another Location

Airport or City:

Trip Planner

Search our weather history database for the weather conditions in past years. The results will help you decide how hot, cold, wet, or windy it might be!

Date:

Astronomy

Mar. 02, 2013 Rise Set
Actual Time 6:27 AM SAST 7:05 PM SAST
Civil Twilight 6:03 AM SAST 7:29 PM SAST
Nautical Twilight 5:35 AM SAST 7:57 PM SAST
Astronomical Twilight 5:07 AM SAST 8:26 PM SAST
Moon 10:06 PM SAST (3/2) 10:51 AM SAST (3/2)
Length of Visible Light 13h 25m
Length of Day
12h 38m
Waning Gibbous, 77% of the Moon is Illuminated
Mar 2
Waning Gibbous
Mar 4
Last Quarter
Mar 11
New
Mar 19
First Quarter
Mar 27
Full

Hourly Weather History & Observations

Time (SAST) Temp. Dew Point Humidity Pressure Visibility Wind Dir Wind Speed Gust Speed Precip Events Conditions
12:00 AM 68.0 °F 32.0 °F 26% 30.04 in - WSW 3.5 mph - N/A   Unknown
1:00 AM 69.8 °F 30.2 °F 23% 30.04 in - South 2.3 mph - N/A   Clear
2:00 AM 64 °F 30 °F 17%  in 25 mi West 5.8 mph - -  
2:00 AM 62.6 °F 32.0 °F 32% 30.04 in - West 4.6 mph - N/A   Clear
3:00 AM 68.0 °F 32.0 °F 26% 30.04 in - East 3.5 mph - N/A   Clear
4:00 AM 62.6 °F 32.0 °F 32% 30.04 in - South 2.3 mph - N/A   Clear
5:00 AM 65 °F 35 °F 22%  in 25 mi South 3.5 mph - -  
5:00 AM 64.4 °F 33.8 °F 32% 30.04 in - South 3.5 mph - N/A   Clear
6:00 AM 60.8 °F 32.0 °F 34% 30.04 in - WSW 3.5 mph - N/A   Clear
7:00 AM 62.6 °F 33.8 °F 34% 30.06 in - SW 5.8 mph - N/A   Clear
8:00 AM 74 °F 38 °F 17%  in 25 mi Calm Calm - -  
8:00 AM 73.4 °F 37.4 °F 27% 30.09 in - Calm Calm - N/A   Clear
9:00 AM 77.0 °F 39.2 °F 26% 30.09 in - NE 1.2 mph - N/A   Clear
10:00 AM 82.4 °F 42.8 °F 25% 30.09 in - NE 6.9 mph - N/A   Clear
10:32 AM 86.0 °F 44.6 °F 23% 30.09 in - NNE 4.6 mph - N/A   Clear
11:00 AM 85 °F 44 °F 14%  in 25 mi NNE 5.8 mph - -  
11:00 AM 84.2 °F 42.8 °F 23% 30.09 in - NNE 4.6 mph - N/A   Clear
12:00 PM 87.8 °F 42.8 °F 21% 30.09 in - SW 2.3 mph - N/A   Clear
12:28 PM 91.4 °F 39.2 °F 16% 30.06 in - ENE 2.3 mph - N/A   Clear
1:00 PM 91.4 °F 35.6 °F 14% 30.06 in - ESE 9.2 mph - N/A   Clear
2:00 PM 94 °F 38 °F 7%  in 25 mi South 8.1 mph - -  
2:00 PM 93.2 °F 37.4 °F 14% 30.04 in - South 8.1 mph - N/A   Clear
3:00 PM 95.0 °F 37.4 °F 13% 30.01 in - WSW 6.9 mph - N/A   Clear
4:00 PM 93.2 °F 33.8 °F 12% 29.98 in - South 5.8 mph - N/A   Clear
5:00 PM 94 °F 35 °F 6%  in 25 mi SSE 10.4 mph - -  
5:00 PM 93.2 °F 33.8 °F 12% 29.98 in - SSE 9.2 mph - N/A   Clear
6:00 PM 95.0 °F 35.6 °F 12% 29.98 in - SSE 4.6 mph - N/A   Clear
7:00 PM 89.6 °F 33.8 °F 14% 30.01 in - SSW 4.6 mph - N/A   Clear
8:00 PM 85 °F 36 °F 9%  in 25 mi SW 4.6 mph - -  
8:00 PM 84.2 °F 35.6 °F 18% 30.01 in - SW 4.6 mph - N/A   Clear
9:00 PM 82.4 °F 35.6 °F 19% 30.04 in - SSW 4.6 mph - N/A   Unknown
10:00 PM 78.8 °F 37.4 °F 23% 30.04 in - SSW 4.6 mph - N/A   Unknown
11:00 PM 77 °F 38 °F 15%  in - SW 6.9 mph - -  
11:00 PM 77.0 °F 37.4 °F 24% 30.04 in - SW 5.8 mph - N/A   Unknown